Time,TemperatureF,DewpointF,PressureIn,WindDirection,WindDirectionDegrees,WindSpeedMPH,WindSpeedGustMPH,Humidity,HourlyPrecipIn,Conditions,Clouds,dailyrainin,SoftwareType,DateUTC
2013-07-16 00:24:00,72.5,69.1,30.13,SSW,202,0.0,-999.0,89,-99.99,,,0.00,Acu-Link.com,2013-07-16 04:24:00,
2013-07-16 00:43:00,72.3,68.9,30.13,SSW,202,0.0,-999.0,89,-99.99,,,0.00,Acu-Link.com,2013-07-16 04:43:00,
2013-07-16 00:59:00,72.1,69.0,30.13,SSW,202,0.0,-999.0,90,-99.99,,,0.00,Acu-Link.com,2013-07-16 04:59:00,
2013-07-16 01:21:00,72.1,69.0,30.13,SSW,202,0.0,-999.0,90,-99.99,,,0.00,Acu-Link.com,2013-07-16 05:21:00,
2013-07-16 01:46:00,72.1,69.0,30.13,SW,225,0.0,-999.0,90,-99.99,,,0.00,Acu-Link.com,2013-07-16 05:46:00,
2013-07-16 02:05:00,73.0,69.9,30.13,SW,225,0.0,-999.0,90,-99.99,,,0.00,Acu-Link.com,2013-07-16 06:05:00,
2013-07-16 02:34:00,72.5,69.4,30.12,SW,225,0.0,-999.0,90,-99.99,,,0.00,Acu-Link.com,2013-07-16 06:34:00,
2013-07-16 02:54:00,72.5,69.4,30.12,WSW,247,0.0,-999.0,90,-99.99,,,0.00,Acu-Link.com,2013-07-16 06:54:00,
2013-07-16 03:14:00,72.5,69.4,30.13,SW,225,0.0,-999.0,90,-99.99,,,0.00,Acu-Link.com,2013-07-16 07:14:00,
2013-07-16 03:29:00,72.3,69.2,30.13,SW,225,0.0,-999.0,90,-99.99,,,0.00,Acu-Link.com,2013-07-16 07:29:00,
2013-07-16 03:52:00,72.3,69.2,30.13,West,270,0.0,-999.0,90,-99.99,,,0.00,Acu-Link.com,2013-07-16 07:52:00,
2013-07-16 04:49:00,72.9,69.8,30.12,SSW,202,0.0,-999.0,90,-99.99,,,0.00,Acu-Link.com,2013-07-16 08:49:00,
2013-07-16 05:10:00,73.0,69.9,30.11,SSW,202,0.0,-999.0,90,-99.99,,,0.00,Acu-Link.com,2013-07-16 09:10:00,
2013-07-16 05:38:00,72.9,69.8,30.12,South,180,0.0,-999.0,90,-99.99,,,0.00,Acu-Link.com,2013-07-16 09:38:00,
2013-07-16 05:59:00,73.0,69.9,30.12,SSW,202,0.0,-999.0,90,-99.99,,,0.00,Acu-Link.com,2013-07-16 09:59:00,
2013-07-16 06:42:00,73.2,70.1,30.14,SSW,202,0.0,-999.0,90,-99.99,,,0.00,Acu-Link.com,2013-07-16 10:42:00,
2013-07-16 06:57:00,73.2,70.4,30.14,SSW,202,0.0,-999.0,91,-99.99,,,0.00,Acu-Link.com,2013-07-16 10:57:00,
2013-07-16 07:18:00,73.4,70.6,30.15,North,0,0.0,-999.0,91,-99.99,,,0.00,Acu-Link.com,2013-07-16 11:18:00,
2013-07-16 07:34:00,74.3,71.5,30.15,West,270,0.0,-999.0,91,-99.99,,,0.00,Acu-Link.com,2013-07-16 11:34:00,
2013-07-16 07:50:00,74.3,71.5,30.15,West,270,0.0,-999.0,91,-99.99,,,0.00,Acu-Link.com,2013-07-16 11:50:00,
2013-07-16 08:07:00,75.2,72.4,30.16,SSW,202,0.0,-999.0,91,-99.99,,,0.00,Acu-Link.com,2013-07-16 12:07:00,
2013-07-16 08:30:00,76.6,72.8,30.16,SSW,202,0.0,-999.0,88,-99.99,,,0.00,Acu-Link.com,2013-07-16 12:30:00,
2013-07-16 09:20:00,78.1,72.9,30.17,South,180,0.0,-999.0,84,-99.99,,,0.00,Acu-Link.com,2013-07-16 13:20:00,
2013-07-16 09:49:00,78.1,72.9,30.17,SW,225,0.0,-999.0,84,-99.99,,,0.00,Acu-Link.com,2013-07-16 13:49:00,
2013-07-16 11:05:00,85.5,72.4,30.16,NNW,337,2.2,-999.0,65,-99.99,,,0.00,Acu-Link.com,2013-07-16 15:05:00,
2013-07-16 11:34:00,86.0,72.8,30.16,NNW,337,4.2,-999.0,65,-99.99,,,0.00,Acu-Link.com,2013-07-16 15:34:00,
2013-07-16 13:18:00,83.7,73.3,30.14,SW,225,1.1,-999.0,71,-99.99,,,0.00,Acu-Link.com,2013-07-16 17:18:00,
2013-07-16 13:35:00,85.5,73.3,30.14,SW,225,0.0,-999.0,67,-99.99,,,0.00,Acu-Link.com,2013-07-16 17:35:00,
2013-07-16 14:01:00,88.5,75.2,30.14,SSW,202,1.1,-999.0,65,-99.99,,,0.00,Acu-Link.com,2013-07-16 18:01:00,
2013-07-16 14:20:00,90.5,73.7,30.14,South,180,1.1,-999.0,58,-99.99,,,0.00,Acu-Link.com,2013-07-16 18:20:00,
2013-07-16 14:40:00,89.1,72.9,30.13,South,180,2.2,-999.0,59,-99.99,,,0.00,Acu-Link.com,2013-07-16 18:40:00,
2013-07-16 14:57:00,89.1,72.9,30.12,SW,225,0.0,-999.0,59,-99.99,,,0.00,Acu-Link.com,2013-07-16 18:57:00,
2013-07-16 15:19:00,87.6,74.8,30.12,South,180,0.0,-999.0,66,-99.99,,,0.00,Acu-Link.com,2013-07-16 19:19:00,
2013-07-16 15:35:00,87.6,74.3,30.12,West,270,1.1,-999.0,65,-99.99,,,0.00,Acu-Link.com,2013-07-16 19:35:00,
2013-07-16 15:55:00,91.2,73.8,30.11,SSW,202,1.7,-999.0,57,-99.99,,,0.00,Acu-Link.com,2013-07-16 19:55:00,
2013-07-16 16:16:00,90.3,73.0,30.11,SSW,202,0.0,-999.0,57,-99.99,,,0.00,Acu-Link.com,2013-07-16 20:16:00,
2013-07-16 16:36:00,90.3,73.0,30.11,SSW,202,2.2,-999.0,57,-99.99,,,0.00,Acu-Link.com,2013-07-16 20:36:00,
2013-07-16 16:59:00,91.6,72.0,30.11,West,270,0.0,-999.0,53,-99.99,,,0.00,Acu-Link.com,2013-07-16 20:59:00,
2013-07-16 17:24:00,91.6,72.0,30.09,SW,225,5.3,-999.0,53,-99.99,,,0.00,Acu-Link.com,2013-07-16 21:24:00,
2013-07-16 17:52:00,91.6,72.6,30.10,West,270,0.0,-999.0,54,-99.99,,,0.00,Acu-Link.com,2013-07-16 21:52:00,
2013-07-16 18:08:00,91.0,72.6,30.09,West,270,1.1,-999.0,55,-99.99,,,0.00,Acu-Link.com,2013-07-16 22:08:00,
2013-07-16 18:29:00,90.7,71.2,30.09,NNW,337,4.2,-999.0,53,-99.99,,,0.00,Acu-Link.com,2013-07-16 22:29:00,
2013-07-16 19:11:00,90.7,71.2,30.09,WSW,247,0.0,-999.0,53,-99.99,,,0.00,Acu-Link.com,2013-07-16 23:11:00,
2013-07-16 20:36:00,85.6,70.1,30.09,West,270,0.0,-999.0,60,-99.99,,,0.00,Acu-Link.com,2013-07-17 00:36:00,
2013-07-16 20:53:00,84.0,70.5,30.09,SE,135,0.0,-999.0,64,-99.99,,,0.00,Acu-Link.com,2013-07-17 00:53:00,
2013-07-16 21:14:00,81.7,70.5,30.09,SE,135,0.0,-999.0,69,-99.99,,,0.00,Acu-Link.com,2013-07-17 01:14:00,
2013-07-16 21:30:00,80.4,70.1,30.09,SSE,157,0.0,-999.0,71,-99.99,,,0.00,Acu-Link.com,2013-07-17 01:30:00,
2013-07-16 22:00:00,79.5,70.9,30.11,SSE,157,0.0,-999.0,75,-99.99,,,0.00,Acu-Link.com,2013-07-17 02:00:00,
2013-07-16 22:19:00,76.8,70.5,30.11,South,180,0.0,-999.0,81,-99.99,,,0.00,Acu-Link.com,2013-07-17 02:19:00,
2013-07-16 22:44:00,76.8,70.5,30.11,West,270,0.0,-999.0,81,-99.99,,,0.00,Acu-Link.com,2013-07-17 02:44:00,
2013-07-16 22:59:00,75.7,69.8,30.11,West,270,0.0,-999.0,82,-99.99,,,0.00,Acu-Link.com,2013-07-17 02:59:00,
2013-07-16 23:17:00,75.6,70.1,30.11,SSE,157,0.0,-999.0,83,-99.99,,,0.00,Acu-Link.com,2013-07-17 03:17:00,
2013-07-16 23:40:00,74.8,69.6,30.11,South,180,0.0,-999.0,84,-99.99,,,0.00,Acu-Link.com,2013-07-17 03:40:00,